Погода Остров Хейса

Погода Остров Хейса : погода сейчас, прогноз погоды и архив. Всё, что Вы хотите узнать о погоде Остров Хейса!

Поиск расширенной информации на нашем сайте:

Другие новости

Новости СМИ2

Главная страница сайта

Новости сайта

03.07.2017

Напоминаем, что на нашем специализированном сайте Метеоцентр.Азия вы можете получить высокодетализированные автоматические прогнозы погоды по пунктам России, СНГ и мира в авиационном формате (включающие направление и скорость ветра, видимость, явления погоды, количество и форму облачности, нижнюю и верхнюю границу облачности).

Рекомендуем: Свадебные арки в Киеве - http://flordekor.com.ua/index.php?p=9 Флордекор.

Погода Остров Хейса - сегодня

Время (UTC), дата Ветер
(°,м/с) 
Видим.   Явления Облачность Т
(°С)
Тd
(°С)
f(%) Тe
(°С)
Pmin
(гПа)
dP
(гПа)
Po
(мм)
O2
(г/м3)
Тmin Tmax R s Состояние
почвы
15 19.09.17 290 (З) 19{24}  20000 м  в посл. час ливневой снег  9/8 400 м кучево-дожд., средняя 
[Cb cap|Ac trans]
-3 -5.7 82 -11  1005.4  -0.1  752  307           
21 19.09.17 320 (СЗ) 13{27}  20000 м    9/9 360 м 
[Sc]
-3.2 -5.2 86 -10  1009.6  2.5  755  308           
00 20.09.17 330 (СЗ) 12{27}  20000 м    9/9 300 м средняя 
[Sc|Ac und]
-2.5 -5.1 82 -9  1013.3  3.7  758  309           
03 20.09.17 320 (СЗ) 8{21}  2000 м  слаб. ливневой снег  10/10 300 м кучево-дожд. 
[Cb cap]
-4.3 -5.7 90 -9  1017.8  4.4  761  312           
06 20.09.17 330 (СЗ) 8{21}  2000 м  слаб. ливневой снег  10/10 300 м кучево-дожд. 
[Cb cap]
-4.1 -5.1 93 -9  1019.2  1.5  762  312  -4.4    0.4     
09 20.09.17 300 (СЗ) 8{14}  4000 м  слаб. ливневой снег  9/9 900 м кучево-дожд. 
[Cb cap]
-3.4 -6.7 78 -8  1020.5  1.2  763  312           
15 20.09.17 300 (СЗ) 13{19}  20000 м  позёмок{ливн. осадки}  9/9 500 м 
[Sc]
-4.1 -5.2 92 -11  1020.5  -0.5  763  313           
18 20.09.17 310 (СЗ) 15{19}  20000 м  позёмок{ливн. осадки}  4/4 300 м 
[Sc]
-3.9 -5.3 90 -11  1019.9  -0.6  763  312    -3  0.3     
03 21.09.17 300 (СЗ) 10{18}  20000 м  позёмок  8/8 600 м 
[Sc]
-3.3 -6 82 -9  1020.3  -0.7  763  312           
06 21.09.17 290 (З) 22{27}  20000 м  позёмок  8/6 330 м средняя 
[Cu Sc|Ac lent]
-2.9 -6 79 -11  1016.8  -3.5  760  310           
09 21.09.17 300 (СЗ) 17{28}  20000 м  позёмок  9/5 300 м средняя, верхняя 
[Sc|Ac trans|Ci fib]
-3.2 -5 87 -11  1016.3  -0.4  760  310           
12 21.09.17 320 (СЗ) 7{26}  20000 м    9/8 600 м средняя 
[Sc|Ac trans]
-3.9 -5.2 91 -9  1019.7  3.3  763  312           
18 21.09.17 300 (СЗ) 7{14}  20000 м    6/6 600 м 
[Sc]
-3.9 -6.6 81 -9  1019.3  0.1  762  312    -2.8       
21 21.09.17 300 (СЗ) 9{13}  20000 м    6/6 960 м 
[Sc]
-3.6 -6.1 83 -9  1019  -0.3  762  312           
00 22.09.17 290 (З) 8{14}  20000 м    9/9 720 м 
[Cu Sc]
-2.7 -5 84 -8  1018.8  -0.2  762  311           
03 22.09.17 310 (СЗ) 13{18}  20000 м  позёмок  4/3 600 м средняя 
[Sc|Ac lent]
-2.6 -5.4 81 -9  1017.5  -1.2  761  310           
09 22.09.17 280 (З) 10{15}  20000 м    5/5 300 м 
[Sc]
-1.9 -5.1 79 -7  1017.8  -1.3  761  309           
12 22.09.17 280 (З) 7{13}  20000 м    8/8 870 м 
[Sc]
-2.2 -5.5 78 -7  1017.3  -0.6  761  310           
15 22.09.17 280 (З) 20000 м    8/8 800 м 
[Sc]
-2.2 -5 81 -6  1015.8  -1.5  760  309           
18 22.09.17 230 (ЮЗ) 20000 м    8/6 600 м средняя 
[Sc|Ac trans]
-1.8 -4.7 81 -5  1014.7  -1.1  759  308    -1.6       
21 22.09.17 270 (З) 20000 м    8/5 870 м средняя 
[Sc|Ac trans]
-1.6 -4 84 -6  1013.8  -0.9  758  308           
00 23.09.17 260 (З) 4{11}  20000 м    9/9 400 м 
[Sc]
-1.7 -3.3 89 -4  1013.7  758  308           
03 23.09.17 230 (ЮЗ) 20000 м    9/9 420 м 
[Sc]
-1.6 -2.6 93 -1  1013.5  -0.3  758  308           
09 23.09.17 250 (З) 20000 м    9/9 600 м 
[Sc]
-1 -1.7 95 -3  1013  0.2  758  307           
12 23.09.17 250 (З) 20000 м    9/9 400 м 
[Sc]
-0.6 -1.4 94 -3  1012.5  -0.5  757  306           
Время (UTC), дата Ветер
(°,м/с) 
Видим.   Явления Облачность Т
(°С)
Тd
(°С)
f(%) Тe
(°С)
Pmin
(гПа)
dP
(гПа)
Po
(мм)
O2
(г/м3)
Тmin Tmax R s Состояние
почвы

Для получения пояснительной информации подведите курсор к названию столбца.

ПОГОДА Остров Хейса - архив

Всё, что Вы хотите узнать о погоде Остров Хейса - удобно и подробно!

Выберите нужную дату (начиная с 1 января 2015* года) и нажмите кнопку "Найти".
Будут отображены архивные сводки погоды по пункту Остров Хейса, начиная с указанной даты.


Отображать данные в формате CSV (для использования в таблицах Excel)


Внимание! Наш архив погоды предназначен исключительно для личного некоммерческого использования в познавательных целях. Если Вам необходимы официальные справки о состоянии погоды (для производственных, юридических, коммерческих и т.п. целей), обращайтесь в органы Росгидромета.

*Примечание: данная дата относится к архиву по метеостанциям СССР (Россия, СНГ, Балтия).
Архив по метеостанциям Зарубежной Европы и Азии (кроме Китая) хранится 10 дней, по другим регионам земного шара (Китай, Африка, Америка, Австралия, Океания) - 1 день.

Остров Хейса - район местоположения метеостанции


Название, широта, долгота, высота метеостанции:
Остров Хейса (Обсерватория Им.Кренкеля) 80.6°ш. 58.1°д. 22 м над ур. моря [Российская Федерация]

Дополнительная информация

В oтличие oт бoльшинства пoгoдных сайтoв мы публикуем пoдрoбную метеoинфoрмацию в детальнoм прoфессиoнальнoм фoрмате.

Характеристики температуры и влажнoсти вoздуха измеряются на высoте 2 м в тени вдали oт зданий и деревьев.
Скoрoсть ветра измеряется на высoте 10 м (на урoвне рoста челoвека скoрoсть ветра ниже в 1.5-2 раза). Если метеoстанция нахoдится в гoрoде или в лесу, тo скoрoсть ветра занижена на 2-4 м/с пo сравнению с oткрытым местoм. Скoрoсть ветра над акватoриями крупных рек и oзёр, а также на вершинах хoлмoв на 2-5 м/с выше, чем в oбычных услoвиях.
Атмoсфернoе давление в разных тoчках местнoсти мoжет значительнo oтличаться oт давления на метеoстанции, в зависимoсти oт услoвий рельефа (при пoдъёме на 10 м давление пoнижается примернo на 1 мм рт.ст.).